[[{"header":{"parameterUnit":"m.s-1","parameterCategory":2,"la1":30.2991,"la2":30.254,"lo1":-89.0895,"lo2":-89.0444,"dy":0.0017,"dx":0.0017,"nx":28,"ny":28,"refTime":"2025-02-07T09:00:00:Z","depth":"0","parameterNumber":2,"parameterNumberName":"U-component_of_CURRENTS"},"data":[0,0,0,0,0,0,0,0,0,0,0,0,0,0,0,0,0,0,0,0,0,0,0,0,0,0,0,0,0,0,0,0,0,0,0,0,0,0,0,0,0,0,0,0,0,0,0,0,0,0,0,0,0,0,0,0,0,0,0.3241,0.3242,0,0.334,0.3341,0.3342,0.3339,0.3338,0.3336,0.3335,0.3346,0.3348,0.3349,0,0,0,0,0,0,0,0,0,0,0,0,0,0.3105,0.3107,0.3241,0.3242,0.3243,0.3339,0.3341,0.3342,0.3339,0.3338,0.3336,0.3335,0.3346,0.3348,0.335,0,0,0,0,0,0,0,0,0,0,0,0,0,0.3179,0.3107,0.324,0.3254,0.3256,0.3339,0.3341,0.3342,0.334,0.3338,0.3336,0.3334,0.3345,0.3348,0.335,0.3403,0,0,0.3357,0.3358,0,0,0,0,0,0,0,0,0.3175,0.3184,0.325,0.3253,0.3256,0.3325,0.3297,0.3359,0.334,0.3307,0.3335,0.3333,0.3333,0.3336,0.336,0.3404,0.3404,0.3357,0.3358,0.3359,0.336,0,0,0,0,0,0,0,0.317,0.318,0.3279,0.3252,0.3255,0.3274,0.3282,0.3309,0.3328,0.331,0.331,0.3323,0.3333,0.3358,0.336,0.3404,0.3357,0.3359,0.336,0.3361,0.3495,0.3497,0,0,0,0,0,0,0.3158,0.3175,0.3276,0.3282,0.321,0.3278,0.3286,0.3305,0.333,0.3332,0.3324,0.3322,0.3355,0.3357,0.336,0.3421,0.3359,0.3361,0.3363,0.3493,0.3496,0.3498,0,0,0,0,0,0,0.3155,0.3167,0.3272,0.3231,0.3245,0.3282,0.3302,0.3308,0.333,0.3342,0.3342,0.334,0.3353,0.3357,0.3387,0.3421,0.3362,0.3365,0.349,0.3494,0.3497,0.3545,0,0,0,0,0,0,0.3151,0.3165,0.3184,0.323,0.3247,0.3325,0.3305,0.3311,0.3341,0.3339,0.3356,0.3355,0.3352,0.3384,0.339,0.3423,0.3366,0.3488,0.3492,0.3496,0.3541,0.355,0.3557,0,0,0,0,0,0.3146,0.3175,0.3184,0.3197,0.3269,0.3327,0.3338,0.3356,0.3344,0.3366,0.3372,0.3355,0.3414,0.3388,0.3394,0.3429,0.3486,0.3491,0.3495,0.3537,0.3548,0.3557,0,0,0,0,0,0,0.3126,0.3179,0.319,0.3234,0.3279,0.3326,0.3354,0.3364,0.3392,0.3385,0.3382,0.3383,0.3424,0.3426,0.3397,0.3482,0.3448,0.3455,0.3478,0.3488,0.3496,0.3519,0.3368,0,0,0,0,0,0.3133,0.3166,0.3218,0.3254,0.3278,0.3318,0.3345,0.336,0.3388,0.3398,0.3411,0.3428,0.3455,0.3467,0.3491,0.3539,0.3587,0.3567,0.3576,0.3582,0.3607,0.372,0.3741,0.3514,0.3514,0.3514,0,0,0.3133,0.3169,0.3187,0.3253,0.3288,0.3331,0.3329,0.3376,0.341,0.3396,0.3443,0.3457,0.3474,0.3524,0.3543,0.3526,0.3673,0.3589,0.3594,0.3616,0.3727,0.375,0.3769,0.3517,0.3517,0.3516,0,0,0.315,0.3186,0.3219,0.3258,0.3317,0.3349,0.3362,0.3417,0.344,0.3488,0.3489,0.353,0.3562,0.3596,0.3611,0.3686,0.3712,0.3687,0.3748,0.3857,0.3877,0.3895,0.3985,0.4011,0.3692,0.3692,0.3692,0,0.3149,0.32,0.3239,0.328,0.3318,0.3354,0.3399,0.3437,0.3493,0.3537,0.3502,0.3614,0.3602,0.3703,0.3708,0.3706,0.3768,0.3702,0.3869,0.3888,0.3905,0.3994,0.4022,0.3695,0.3694,0.3694,0.3694,0,0.319,0.3233,0.3258,0.3321,0.3367,0.3414,0.3469,0.3519,0.3543,0.3589,0.3691,0.3709,0.3782,0.3779,0.375,0.3882,0.3886,0.3864,0.3842,0.3931,0.4019,0.4047,0.3699,0.3698,0.3697,0.3696,0,0,0.3178,0.3269,0.3275,0.3318,0.3394,0.344,0.3508,0.3605,0.3675,0.373,0.3836,0.3875,0.3912,0.3934,0.394,0.4012,0.4153,0.3984,0.3988,0.4072,0.4402,0.4341,0.4366,0.4166,0.4171,0.4175,0.4412,0,0.3201,0.328,0.332,0.34,0.3453,0.3513,0.3582,0.367,0.3741,0.3849,0.3918,0.4011,0.3967,0.4011,0.4084,0.4134,0.4231,0.4092,0.4306,0.4313,0.4246,0.4398,0.4261,0.4456,0.444,0.4445,0.4448,0,0.3228,0.3282,0.3361,0.3467,0.3496,0.3544,0.3685,0.3754,0.3906,0.3966,0.4094,0.4151,0.4281,0.4214,0.4414,0.4331,0.438,0.4415,0.4425,0.4376,0.4305,0.4366,0.4508,0.4373,0.4491,0.4488,0.4485,0,0.3223,0.3313,0.3381,0.3413,0.3533,0.3586,0.3653,0.3796,0.3892,0.4062,0.4157,0.4321,0.4409,0.4522,0.458,0.452,0.4788,0.4716,0.4732,0.4727,0.4658,0.4638,0.4694,0.4891,0.489,0.489,0.4889,0,0.3249,0.3303,0.338,0.3424,0.353,0.3592,0.3728,0.3824,0.3976,0.4098,0.4225,0.4359,0.4489,0.4639,0.4678,0.4808,0.489,0.4795,0.4808,0.4668,0.4647,0.4559,0.4505,0.4898,0.4897,0.4895,0.4893,0,0.3266,0.3303,0.34,0.3505,0.354,0.3622,0.3772,0.3852,0.4003,0.4168,0.4232,0.4439,0.462,0.4756,0.4934,0.4934,0.493,0.5074,0.489,0.4874,0.4706,0.466,0.4617,0.4476,0.5143,0.5144,0.5144,0,0.3293,0.334,0.3461,0.3495,0.3546,0.3656,0.3715,0.3864,0.3938,0.4204,0.4263,0.4512,0.4647,0.4922,0.4988,0.5128,0.4961,0.5061,0.4908,0.4728,0.4688,0.448,0.4348,0.4846,0.4844,0.4842,0.4841,0,0.3354,0.3391,0.3456,0.3526,0.358,0.3657,0.3737,0.3804,0.3956,0.41,0.4258,0.4402,0.4682,0.4769,0.4967,0.5018,0.4818,0.5024,0.491,0.454,0.4253,0.411,0.4644,0.4825,0.4826,0.4827,0.4828,0.4829,0.339,0.3433,0.3479,0.3538,0.3582,0.3583,0.3601,0.3674,0.3781,0.3917,0.4131,0.4286,0.4548,0.4801,0.4817,0.4761,0.4709,0.4646,0.4637,0.4464,0.4222,0.4707,0.4837,0.4839,0.484,0.4841,0.4842,0,0.3397,0.3412,0.3466,0.349,0.3469,0.3519,0.3544,0.3511,0.3545,0.3744,0.3882,0.4134,0.4296,0.4457,0.4545,0.4403,0.4188,0.4296,0.3983,0.3894,0.4421,0.4296,0.4225,0.4225,0.4225,0.4225,0.4225,0.4226,0.3396,0.3401,0.3401,0.3341,0.3334,0.3255,0.3228,0.3208,0.3291,0.3383,0.3511,0.3721,0.404,0.4318,0.4235,0.4133,0.3789,0.367,0.3613,0.4003,0.4032,0.406,0.3927,0.3781,0.378,0.291,0.2904,0.2899]},{"header":{"parameterUnit":"m.s-1","parameterCategory":2,"la1":30.2991,"la2":30.254,"lo1":-89.0895,"lo2":-89.0444,"dy":0.0017,"dx":0.0017,"nx":28,"ny":28,"refTime":"2025-02-07T09:00:00:Z","depth":"0","parameterNumber":3,"parameterNumberName":"V-component_of_CURRENTS"},"data":[0,0,0,0,0,0,0,0,0,0,0,0,0,0,0,0,0,0,0,0,0,0,0,0,0,0,0,0,0,0,0,0,0,0,0,0,0,0,0,0,0,0,0,0,0,0,0,0,0,0,0,0,0,0,0,0,0,0,0.0043,0.0042,0,-0.0035,-0.0036,-0.0037,-0.0098,-0.0099,-0.0099,-0.0099,-0.0233,-0.0236,-0.0239,0,0,0,0,0,0,0,0,0,0,0,0,0,0.0089,0.0089,0.0043,0.0042,0.0041,-0.0035,-0.0036,-0.0037,-0.0098,-0.0099,-0.0099,-0.01,-0.0232,-0.0235,-0.0239,0,0,0,0,0,0,0,0,0,0,0,0,0,0.0045,0.0089,0.0043,0.0003,-0.0001,-0.0035,-0.0036,-0.0038,-0.0098,-0.0099,-0.0099,-0.01,-0.023,-0.0235,-0.024,-0.0256,0,0,-0.0254,-0.0256,0,0,0,0,0,0,0,0,0.0047,0.0043,0.001,0.0006,0.0001,-0.0056,-0.0069,-0.0113,-0.0098,-0.0063,-0.0099,-0.01,-0.0177,-0.0186,-0.0201,-0.0262,-0.0267,-0.0254,-0.0257,-0.0259,-0.0261,0,0,0,0,0,0,0,0.0051,0.0046,0.001,0.0009,0.0004,-0.0028,-0.0035,-0.0077,-0.0118,-0.0066,-0.007,-0.0076,-0.018,-0.0196,-0.0205,-0.0269,-0.0254,-0.0258,-0.0261,-0.0263,-0.0342,-0.0341,0,0,0,0,0,0,0.0067,0.0049,0.0013,0.0008,0.0025,-0.0028,-0.0036,-0.0038,-0.0116,-0.0128,-0.0075,-0.0079,-0.0188,-0.0199,-0.021,-0.0207,-0.0259,-0.0264,-0.0266,-0.0343,-0.0342,-0.0341,0,0,0,0,0,0,0.0068,0.0065,0.0016,0.0028,0.002,-0.0028,-0.003,-0.004,-0.0053,-0.0122,-0.0136,-0.0079,-0.0189,-0.0203,-0.0237,-0.0214,-0.0266,-0.027,-0.0344,-0.0342,-0.0341,-0.0218,0,0,0,0,0,0,0.007,0.0066,0.007,0.0029,0.002,0.0009,-0.003,-0.0041,-0.0055,-0.006,-0.013,-0.0143,-0.019,-0.0229,-0.0241,-0.0221,-0.0274,-0.0344,-0.0343,-0.0342,-0.0223,-0.0213,-0.0204,0,0,0,0,0,0.0072,0.0086,0.0071,0.0067,0.0027,0.001,0.0002,-0.0036,-0.0054,-0.0052,-0.0098,-0.0141,-0.0229,-0.0232,-0.0247,-0.0227,-0.0345,-0.0343,-0.0342,-0.0227,-0.0215,-0.0204,0,0,0,0,0,0,0.0109,0.008,0.0063,0.0067,0.0045,0.0,-0.0001,-0.0026,-0.0061,-0.0066,-0.0134,-0.015,-0.0176,-0.0217,-0.0219,-0.0247,-0.0294,-0.0295,-0.0202,-0.0191,-0.0181,-0.0134,-0.0278,0,0,0,0,0,0.012,0.0121,0.0089,0.0092,0.0086,0.0044,0.0032,0.001,-0.0026,-0.0042,-0.009,-0.014,-0.018,-0.0196,-0.0246,-0.0255,-0.0263,-0.0252,-0.0243,-0.0234,-0.0207,-0.0185,-0.0169,-0.0336,-0.0336,-0.0336,0,0,0.0135,0.0119,0.0119,0.01,0.0078,0.0085,0.0035,0.0027,0.0037,-0.0052,-0.0057,-0.0116,-0.0179,-0.0194,-0.0208,-0.0223,-0.0194,-0.0232,-0.0224,-0.0201,-0.0181,-0.0164,-0.015,-0.0334,-0.0335,-0.0335,0,0,0.0175,0.0153,0.0172,0.016,0.014,0.0118,0.0122,0.0085,0.0074,0.0057,-0.0002,-0.0029,-0.0102,-0.0123,-0.0148,-0.0112,-0.0154,-0.0144,-0.0046,-0.0025,-0.001,0.0003,0.001,0.0023,-0.0127,-0.0127,-0.0127,0,0.0194,0.0216,0.0175,0.0193,0.0199,0.0141,0.0175,0.0152,0.011,0.0127,0.007,0.0018,-0.0057,-0.0033,-0.0042,-0.0086,-0.009,-0.0081,-0.0008,0.0005,0.0016,0.002,0.0032,-0.0121,-0.0122,-0.0122,-0.0123,0,0.0251,0.0268,0.028,0.0286,0.0286,0.0302,0.0274,0.0277,0.0249,0.0234,0.0242,0.0157,0.0146,0.0098,0.0024,0.0072,0.0037,-0.0005,-0.0026,0.0041,0.0039,0.005,-0.0112,-0.0115,-0.0116,-0.0118,0,0,0.0302,0.0321,0.0326,0.0369,0.0344,0.0368,0.0382,0.041,0.0472,0.0403,0.0488,0.0376,0.0351,0.0322,0.0246,0.0234,0.0272,0.0147,0.0145,0.0173,0.0315,0.0265,0.0271,0.0244,0.0247,0.0249,0.0281,0,0.0367,0.0445,0.0423,0.0506,0.0555,0.052,0.0562,0.0576,0.057,0.0631,0.0566,0.0595,0.0435,0.0449,0.0412,0.0312,0.0307,0.0268,0.0229,0.0229,0.0192,0.0285,0.0235,0.0258,0.0292,0.0293,0.0295,0,0.044,0.0489,0.0588,0.0673,0.0693,0.0734,0.083,0.0859,0.0901,0.0904,0.0914,0.0863,0.0844,0.0702,0.0603,0.0584,0.0465,0.0371,0.0371,0.0295,0.02,0.0194,0.0276,0.0016,0.0311,0.031,0.0308,0,0.0547,0.0613,0.0715,0.0734,0.0805,0.0868,0.0912,0.0961,0.1043,0.1105,0.1178,0.1128,0.1143,0.0996,0.0765,0.0701,0.0655,0.0557,0.041,0.0405,0.0343,0.0328,0.019,0.0516,0.0516,0.0516,0.0516,0,0.0645,0.0733,0.0786,0.0852,0.1019,0.1007,0.1185,0.1219,0.1309,0.1447,0.1351,0.1449,0.1213,0.1138,0.0897,0.0703,0.0772,0.0463,0.0428,0.038,0.0369,0.012,-0.0025,0.0517,0.0517,0.0517,0.0517,0,0.0782,0.0791,0.0943,0.1041,0.1086,0.1221,0.1373,0.1496,0.1544,0.1726,0.1765,0.1727,0.1624,0.1375,0.1152,0.0903,0.0551,0.0612,0.0561,0.0519,0.0111,-0.0024,-0.0166,-0.0281,0.0474,0.0473,0.0473,0,0.087,0.0955,0.1113,0.1214,0.1277,0.1445,0.1566,0.1634,0.1756,0.1897,0.2005,0.1971,0.1968,0.1631,0.1191,0.0831,0.0566,0.0538,0.0396,0.0118,-0.0058,-0.0159,-0.0253,0.0358,0.0356,0.0355,0.0354,0,0.1063,0.1115,0.1232,0.1423,0.1568,0.174,0.19,0.2032,0.2118,0.2254,0.2389,0.2405,0.2081,0.1698,0.1194,0.0903,0.0337,0.05,0.0239,-0.0123,-0.0264,-0.0401,0.029,0.0343,0.0344,0.0345,0.0345,0.0346,0.1215,0.1332,0.1452,0.1637,0.1798,0.1979,0.2133,0.2288,0.2487,0.268,0.2663,0.2722,0.2141,0.1444,0.1032,0.0223,0.0247,-0.0042,-0.0169,-0.0233,-0.0391,0.0272,0.026,0.0261,0.0261,0.0262,0.0262,0,0.1369,0.1462,0.1646,0.1834,0.2005,0.206,0.2306,0.2451,0.2677,0.2867,0.2973,0.2704,0.1989,0.1261,0.0174,-0.0356,-0.0563,-0.0641,-0.0816,-0.087,-0.0255,-0.0312,-0.048,-0.048,-0.0479,-0.0479,-0.0479,-0.0478,0.1453,0.1608,0.167,0.1936,0.2076,0.2297,0.2435,0.2668,0.2845,0.3054,0.3085,0.3078,0.243,0.0551,-0.0698,-0.0964,-0.1344,-0.1426,-0.157,-0.1204,-0.1159,-0.1116,-0.1204,-0.1556,-0.1557,-0.2149,-0.2156,-0.216]}],[{"header":{"parameterUnit":"m.s-1","parameterCategory":2,"la1":30.2991,"la2":30.254,"lo1":-89.0895,"lo2":-89.0444,"dy":0.0017,"dx":0.0017,"nx":28,"ny":28,"refTime":"2025-02-07T09:00:00:Z","depth":"2","parameterNumber":2,"parameterNumberName":"U-component_of_CURRENTS"},"data":[0,0,0,0,0,0,0,0,0,0,0,0,0,0,0,0,0,0,0,0,0,0,0,0,0,0,0,0,0,0,0,0,0,0,0,0,0,0,0,0,0,0,0,0,0,0,0,0,0,0,0,0,0,0,0,0,0,0,0.2467,0.2467,0,0.2553,0.2554,0.2556,0.2598,0.2597,0.2597,0.2596,0.2607,0.2608,0.2608,0,0,0,0,0,0,0,0,0,0,0,0,0,0.2378,0.2379,0.2467,0.2467,0.2468,0.2553,0.2554,0.2556,0.2598,0.2597,0.2597,0.2596,0.2607,0.2608,0.2608,0,0,0,0,0,0,0,0,0,0,0,0,0,0.244,0.238,0.2467,0.2496,0.2499,0.2552,0.2554,0.2556,0.2598,0.2597,0.2597,0.2596,0.2607,0.2608,0.2609,0.2628,0,0,0.2612,0.2612,0,0,0,0,0,0,0,0,0.2436,0.2444,0.2491,0.2494,0.2497,0.256,0.2527,0.2575,0.2598,0.2565,0.2596,0.2596,0.2581,0.2585,0.261,0.2629,0.2629,0.2612,0.2613,0.2613,0.2613,0,0,0,0,0,0,0,0.2432,0.244,0.2506,0.2491,0.2495,0.2517,0.2526,0.2537,0.2578,0.2568,0.257,0.2572,0.2583,0.2609,0.261,0.263,0.2612,0.2613,0.2613,0.2614,0.2719,0.2721,0,0,0,0,0,0,0.2411,0.2436,0.2503,0.2508,0.2459,0.2519,0.2528,0.2544,0.258,0.2584,0.2573,0.2574,0.2608,0.2609,0.2611,0.2671,0.2613,0.2614,0.2615,0.2717,0.272,0.2722,0,0,0,0,0,0,0.2409,0.2416,0.2499,0.2469,0.2481,0.252,0.2538,0.2546,0.2574,0.2584,0.2587,0.2591,0.2607,0.2609,0.2645,0.267,0.2614,0.2615,0.2714,0.2718,0.2721,0.2768,0,0,0,0,0,0,0.2406,0.2416,0.2435,0.2468,0.2481,0.254,0.2539,0.2548,0.2573,0.2576,0.26,0.2601,0.2607,0.2643,0.2646,0.267,0.2616,0.2712,0.2716,0.272,0.2764,0.2773,0.278,0,0,0,0,0,0.2403,0.2426,0.2436,0.2444,0.2502,0.254,0.2551,0.2579,0.2575,0.2599,0.2622,0.26,0.2671,0.2646,0.2648,0.2674,0.271,0.2715,0.2719,0.276,0.2771,0.278,0,0,0,0,0,0,0.2395,0.2433,0.2444,0.2478,0.2509,0.2545,0.2572,0.2581,0.2621,0.2624,0.2627,0.2631,0.2675,0.2671,0.2644,0.272,0.2687,0.2692,0.2717,0.2727,0.2735,0.2748,0.2617,0,0,0,0,0,0.2401,0.2428,0.2464,0.2488,0.2508,0.254,0.2561,0.2579,0.2609,0.2626,0.2648,0.2672,0.2699,0.2708,0.2738,0.277,0.2795,0.2791,0.2799,0.2805,0.282,0.2906,0.2924,0.2738,0.2738,0.2738,0,0,0.2399,0.2425,0.2438,0.2488,0.2517,0.2553,0.2553,0.2589,0.2617,0.2619,0.2676,0.2703,0.2717,0.2769,0.2786,0.2764,0.2869,0.2812,0.2817,0.2828,0.2913,0.2932,0.2948,0.2741,0.2741,0.274,0,0,0.2409,0.2439,0.247,0.2499,0.2543,0.2568,0.2575,0.2626,0.2652,0.2701,0.2719,0.2766,0.2799,0.2833,0.2844,0.2912,0.2915,0.2916,0.2959,0.3043,0.3059,0.3073,0.3112,0.313,0.2914,0.2914,0.2914,0,0.2408,0.245,0.2483,0.252,0.2544,0.2571,0.2608,0.264,0.2696,0.2737,0.2722,0.2832,0.2832,0.2906,0.293,0.2929,0.2969,0.2914,0.3054,0.3068,0.3082,0.3119,0.3138,0.2917,0.2916,0.2916,0.2916,0,0.2442,0.2477,0.2496,0.2552,0.259,0.262,0.2665,0.2717,0.2744,0.2784,0.2875,0.2903,0.2975,0.2975,0.2965,0.307,0.3063,0.3058,0.3025,0.3104,0.3137,0.3156,0.2921,0.292,0.2919,0.2918,0,0,0.2425,0.2505,0.2508,0.2546,0.2607,0.2643,0.2704,0.2782,0.2845,0.2897,0.2988,0.3031,0.3074,0.3092,0.3103,0.3155,0.3264,0.3149,0.3152,0.3181,0.3437,0.3354,0.3365,0.3296,0.33,0.3303,0.3414,0,0.244,0.2511,0.2545,0.2607,0.2655,0.2705,0.2763,0.2839,0.2907,0.3008,0.3053,0.3142,0.3107,0.316,0.3212,0.3271,0.332,0.3233,0.3363,0.3366,0.3278,0.3387,0.314,0.3214,0.3433,0.3436,0.3438,0,0.2458,0.251,0.2577,0.2663,0.2688,0.2735,0.2861,0.2915,0.3049,0.3109,0.3215,0.3265,0.3368,0.3318,0.3457,0.3413,0.3433,0.3451,0.3457,0.3378,0.3319,0.3176,0.324,0.3469,0.3466,0.3464,0.3462,0,0.2443,0.2526,0.2582,0.2607,0.2712,0.2771,0.2835,0.2966,0.3044,0.3202,0.3289,0.3409,0.3489,0.3556,0.3587,0.3554,0.3719,0.3678,0.3613,0.3605,0.342,0.3389,0.3774,0.3774,0.3774,0.3773,0.3773,0,0.244,0.2482,0.2589,0.2619,0.2703,0.2786,0.2888,0.2984,0.3142,0.3233,0.3352,0.3446,0.356,0.3653,0.3659,0.3702,0.3788,0.365,0.365,0.3426,0.3396,0.3633,0.3615,0.3777,0.3776,0.3776,0.3775,0,0.2408,0.2467,0.2537,0.2656,0.2697,0.2764,0.2907,0.2977,0.3148,0.3281,0.3344,0.3533,0.3647,0.3723,0.3833,0.3793,0.3835,0.3813,0.352,0.3483,0.3643,0.3626,0.3782,0.378,0.3779,0.3778,0.3777,0,0.2399,0.2442,0.2545,0.2572,0.2625,0.2727,0.2779,0.296,0.3044,0.3298,0.3355,0.3549,0.3613,0.3762,0.376,0.379,0.3825,0.3552,0.3437,0.3671,0.3655,0.364,0.3626,0.3202,0.3196,0.3192,0.3188,0,0.2385,0.2418,0.2461,0.2509,0.2567,0.2624,0.2736,0.2806,0.2996,0.3141,0.3302,0.3396,0.3552,0.3491,0.3554,0.3523,0.3534,0.3459,0.3831,0.3231,0.3132,0.3113,0.3117,0.3148,0.3152,0.3155,0.3157,0.3159,0.2356,0.2352,0.2382,0.2426,0.2477,0.2493,0.2505,0.2626,0.2747,0.2904,0.3089,0.3153,0.3244,0.3218,0.3149,0.3121,0.3341,0.3197,0.3209,0.3226,0.3132,0.3035,0.3013,0.3017,0.3019,0.3022,0.3024,0,0.2275,0.2255,0.2286,0.2308,0.2295,0.2383,0.2437,0.2409,0.2471,0.2662,0.2782,0.2634,0.2652,0.274,0.2651,0.2673,0.2618,0.2561,0.2468,0.2514,0.2553,0.242,0.2115,0.2112,0.2108,0.2105,0,0,0.2218,0.2156,0.2157,0.2102,0.2136,0.2093,0.2086,0.2087,0.2169,0.2191,0.2265,0.2503,0.2666,0.2334,0.233,0.2204,0.2322,0.2123,0.2868,0.2805,0.2839,0.2957,0.2809,0,0,0,0,0]},{"header":{"parameterUnit":"m.s-1","parameterCategory":2,"la1":30.2991,"la2":30.254,"lo1":-89.0895,"lo2":-89.0444,"dy":0.0017,"dx":0.0017,"nx":28,"ny":28,"refTime":"2025-02-07T09:00:00:Z","depth":"2","parameterNumber":3,"parameterNumberName":"V-component_of_CURRENTS"},"data":[0,0,0,0,0,0,0,0,0,0,0,0,0,0,0,0,0,0,0,0,0,0,0,0,0,0,0,0,0,0,0,0,0,0,0,0,0,0,0,0,0,0,0,0,0,0,0,0,0,0,0,0,0,0,0,0,0,0,-0.0059,-0.0059,0,-0.0125,-0.0126,-0.0127,-0.0184,-0.0185,-0.0185,-0.0185,-0.0288,-0.0291,-0.0293,0,0,0,0,0,0,0,0,0,0,0,0,0,-0.0047,-0.0046,-0.0058,-0.0059,-0.006,-0.0124,-0.0126,-0.0127,-0.0184,-0.0185,-0.0185,-0.0185,-0.0288,-0.029,-0.0293,0,0,0,0,0,0,0,0,0,0,0,0,0,-0.0079,-0.0046,-0.0058,-0.0094,-0.0097,-0.0124,-0.0126,-0.0127,-0.0184,-0.0185,-0.0185,-0.0186,-0.0287,-0.029,-0.0294,-0.0305,0,0,-0.0305,-0.0306,0,0,0,0,0,0,0,0,-0.0077,-0.008,-0.0088,-0.0091,-0.0095,-0.0144,-0.0159,-0.0187,-0.0184,-0.0154,-0.0185,-0.0186,-0.0241,-0.0248,-0.0263,-0.0309,-0.0314,-0.0305,-0.0307,-0.0309,-0.031,0,0,0,0,0,0,0,-0.0075,-0.0077,-0.0088,-0.0088,-0.0093,-0.0128,-0.0133,-0.0165,-0.0197,-0.0157,-0.0161,-0.0163,-0.0244,-0.026,-0.0266,-0.0315,-0.0305,-0.0308,-0.031,-0.0312,-0.0381,-0.0381,0,0,0,0,0,0,-0.0056,-0.0075,-0.0086,-0.0089,-0.0084,-0.0128,-0.0133,-0.013,-0.0196,-0.0205,-0.0162,-0.0165,-0.0253,-0.0262,-0.027,-0.0275,-0.0309,-0.0312,-0.0314,-0.0382,-0.0381,-0.0381,0,0,0,0,0,0,-0.0055,-0.0056,-0.0083,-0.0082,-0.0087,-0.0126,-0.0123,-0.0131,-0.0145,-0.0199,-0.021,-0.0166,-0.0254,-0.0265,-0.0291,-0.028,-0.0314,-0.0317,-0.0382,-0.0382,-0.0381,-0.0291,0,0,0,0,0,0,-0.0055,-0.0055,-0.0051,-0.008,-0.0086,-0.0087,-0.0123,-0.0132,-0.0144,-0.0148,-0.0206,-0.0216,-0.0255,-0.0286,-0.0295,-0.0285,-0.032,-0.0382,-0.0382,-0.0381,-0.0295,-0.0288,-0.0282,0,0,0,0,0,-0.0054,-0.0036,-0.005,-0.0051,-0.0077,-0.0086,-0.0093,-0.0126,-0.0143,-0.0142,-0.0181,-0.0215,-0.0289,-0.0288,-0.0299,-0.029,-0.0383,-0.0382,-0.0381,-0.0298,-0.0289,-0.0282,0,0,0,0,0,0,-0.0026,-0.0041,-0.0057,-0.0044,-0.006,-0.0095,-0.0096,-0.0117,-0.0148,-0.0153,-0.0209,-0.0221,-0.0242,-0.0278,-0.0275,-0.031,-0.0342,-0.0344,-0.0275,-0.0268,-0.0261,-0.0238,-0.0323,0,0,0,0,0,-0.0017,-0.001,-0.0031,-0.0022,-0.0026,-0.0061,-0.007,-0.0089,-0.0117,-0.0131,-0.0171,-0.0215,-0.0248,-0.0266,-0.0303,-0.0317,-0.0352,-0.0321,-0.0314,-0.0309,-0.0298,-0.0336,-0.0331,-0.0379,-0.0379,-0.0379,0,0,-0.0004,-0.0011,-0.0007,-0.0016,-0.0034,-0.0027,-0.0068,-0.0071,-0.0068,-0.0137,-0.0148,-0.0194,-0.0248,-0.0266,-0.0278,-0.0293,-0.0315,-0.0308,-0.0302,-0.0295,-0.0334,-0.033,-0.0325,-0.0378,-0.0378,-0.0378,0,0,0.0033,0.0021,0.004,0.0032,0.0019,0.0001,0.0006,-0.0023,-0.0039,-0.0053,-0.0103,-0.0135,-0.0188,-0.0221,-0.0246,-0.0226,-0.0281,-0.0244,-0.0191,-0.0227,-0.0223,-0.022,-0.0259,-0.026,-0.0239,-0.0239,-0.0239,0,0.0047,0.0069,0.0043,0.0059,0.0061,0.0021,0.0043,0.0024,-0.001,-0.0015,-0.0044,-0.0116,-0.0165,-0.0182,-0.0181,-0.021,-0.0243,-0.0212,-0.0217,-0.0215,-0.0213,-0.0254,-0.0256,-0.0235,-0.0235,-0.0236,-0.0236,0,0.0097,0.0111,0.0124,0.013,0.0129,0.0142,0.012,0.0114,0.0088,0.0065,0.004,-0.0027,-0.0067,-0.0092,-0.0133,-0.0144,-0.0175,-0.0204,-0.023,-0.0203,-0.0248,-0.0252,-0.0228,-0.023,-0.0231,-0.0232,0,0,0.0133,0.0155,0.0158,0.0179,0.0169,0.018,0.0187,0.0186,0.02,0.0151,0.0161,0.0089,0.005,0.0019,-0.0038,-0.0075,-0.01,-0.0129,-0.0133,-0.0157,-0.0183,-0.0215,-0.0223,-0.013,-0.013,-0.013,-0.0219,0,0.0178,0.0233,0.0225,0.0274,0.0302,0.0274,0.0289,0.028,0.0257,0.0256,0.0189,0.0173,0.0094,0.008,0.003,-0.006,-0.0106,-0.0073,-0.0216,-0.022,-0.0243,-0.0227,-0.019,-0.0267,-0.0223,-0.0224,-0.0224,0,0.0226,0.026,0.032,0.0359,0.0368,0.039,0.0411,0.042,0.0401,0.0385,0.0351,0.0294,0.0242,0.0169,0.003,0.0055,-0.0056,-0.0137,-0.0143,-0.0204,-0.0259,-0.029,-0.0276,-0.0232,-0.0231,-0.0231,-0.023,0,0.0273,0.0324,0.0379,0.0391,0.0425,0.045,0.0468,0.0463,0.0492,0.0476,0.0492,0.0404,0.0379,0.0238,0.0063,0.0049,-0.0097,-0.0138,-0.0275,-0.0279,-0.0291,-0.0296,-0.0244,-0.0244,-0.0243,-0.0243,-0.0243,0,0.0324,0.0367,0.0412,0.0444,0.0514,0.0517,0.0576,0.0583,0.061,0.0657,0.0571,0.0583,0.0394,0.0283,0.0106,-0.0089,-0.0067,-0.026,-0.03,-0.026,-0.0261,-0.0266,-0.0268,-0.0247,-0.0246,-0.0245,-0.0245,0,0.0362,0.0388,0.0455,0.0513,0.0539,0.0591,0.0664,0.0702,0.0727,0.079,0.0799,0.0729,0.0587,0.0376,0.0149,-0.0018,-0.021,-0.0295,-0.0236,-0.0268,-0.0382,-0.0378,-0.0444,-0.0446,-0.0448,-0.0449,-0.045,0,0.0386,0.0426,0.0508,0.0547,0.0577,0.0652,0.0699,0.0756,0.0813,0.0876,0.0918,0.0821,0.0752,0.0415,0.0109,-0.0193,-0.0235,-0.0366,-0.0392,-0.0368,-0.0401,-0.0394,-0.0388,-0.0377,-0.0377,-0.0377,-0.0378,0,0.0424,0.0449,0.05,0.0588,0.0652,0.0738,0.0828,0.0907,0.0979,0.1052,0.1119,0.1082,0.0767,0.0478,0.0064,-0.0142,-0.0311,-0.0383,-0.0366,-0.033,-0.0311,-0.0341,-0.0336,-0.038,-0.038,-0.038,-0.038,-0.038,0.0439,0.0476,0.0537,0.0631,0.0709,0.0832,0.0926,0.1029,0.1166,0.13,0.1251,0.1221,0.0877,0.0367,0.0012,-0.0346,-0.0344,-0.0467,-0.0463,-0.0459,-0.0434,-0.0418,-0.0503,-0.0504,-0.0504,-0.0505,-0.0505,0,0.0451,0.0498,0.0574,0.0691,0.0801,0.0841,0.1013,0.1119,0.1298,0.1391,0.1448,0.1153,0.0817,0.0438,-0.0094,-0.043,-0.0444,-0.0526,-0.0464,-0.046,-0.0456,-0.0428,-0.0498,-0.0499,-0.05,-0.05,0,0,0.0449,0.0517,0.0573,0.076,0.0849,0.1017,0.1134,0.1287,0.1406,0.1511,0.1516,0.1422,0.0953,0.0573,0.0116,-0.0179,-0.0237,-0.0239,-0.0211,-0.0079,-0.0071,-0.0393,-0.0342,0,0,0,0,0]}],[{"header":{"parameterUnit":"m.s-1","parameterCategory":2,"la1":30.2991,"la2":30.254,"lo1":-89.0895,"lo2":-89.0444,"dy":0.0017,"dx":0.0017,"nx":28,"ny":28,"refTime":"2025-02-07T09:00:00:Z","depth":"4","parameterNumber":2,"parameterNumberName":"U-component_of_CURRENTS"},"data":[0,0,0,0,0,0,0,0,0,0,0,0,0,0,0,0,0,0,0,0,0,0,0,0,0,0,0,0,0,0,0,0,0,0,0,0,0,0,0,0,0,0,0,0,0,0,0,0,0,0,0,0,0,0,0,0,0,0,0.1547,0.1548,0,0.1606,0.1606,0.1607,0.1661,0.1662,0.1663,0.1664,0.1747,0.1749,0.175,0,0,0,0,0,0,0,0,0,0,0,0,0,0.1447,0.1449,0.1547,0.1548,0.1549,0.1606,0.1606,0.1607,0.1661,0.1662,0.1664,0.1665,0.1747,0.1748,0.175,0,0,0,0,0,0,0,0,0,0,0,0,0,0.1493,0.1449,0.1547,0.1586,0.1591,0.1606,0.1606,0.1607,0.1661,0.1662,0.1664,0.1666,0.1747,0.1748,0.175,0.173,0,0,0.1756,0.1757,0,0,0,0,0,0,0,0,0.149,0.1496,0.1579,0.1584,0.1589,0.1632,0.1602,0.1651,0.166,0.163,0.1664,0.1666,0.1713,0.1717,0.1718,0.1733,0.1737,0.1756,0.1757,0.1758,0.1758,0,0,0,0,0,0,0,0.1487,0.1494,0.1566,0.1581,0.1586,0.159,0.1598,0.1611,0.1659,0.1632,0.1638,0.1651,0.1715,0.1716,0.1721,0.1738,0.1756,0.1757,0.1759,0.1759,0.1871,0.1873,0,0,0,0,0,0,0.1489,0.1491,0.1564,0.1568,0.1547,0.1591,0.16,0.1613,0.1658,0.1668,0.1649,0.1653,0.1712,0.1719,0.1724,0.1819,0.1758,0.176,0.1761,0.1869,0.1872,0.1874,0,0,0,0,0,0,0.1486,0.1495,0.1562,0.1534,0.1544,0.1592,0.1605,0.1613,0.1653,0.1671,0.1681,0.1686,0.1714,0.1722,0.1774,0.1819,0.176,0.1762,0.1867,0.187,0.1873,0.1935,0,0,0,0,0,0,0.1483,0.1493,0.1513,0.1534,0.1546,0.1596,0.1605,0.1613,0.1658,0.1664,0.1705,0.1712,0.1716,0.1771,0.1776,0.182,0.1763,0.1865,0.1868,0.1872,0.1931,0.194,0.1947,0,0,0,0,0,0.1479,0.1496,0.1513,0.1523,0.1568,0.1597,0.1603,0.1639,0.1658,0.1679,0.1713,0.1713,0.1797,0.1774,0.1779,0.1825,0.1863,0.1867,0.1871,0.1927,0.1938,0.1947,0,0,0,0,0,0,0.1464,0.1504,0.1524,0.1554,0.1587,0.1609,0.1636,0.1656,0.1696,0.1715,0.1729,0.1739,0.1807,0.1803,0.1777,0.1869,0.1833,0.1838,0.1873,0.1884,0.1892,0.1893,0.1765,0,0,0,0,0,0.1469,0.1497,0.1531,0.156,0.158,0.1613,0.1634,0.166,0.1693,0.1714,0.1746,0.1782,0.182,0.1842,0.1871,0.191,0.1917,0.1946,0.1954,0.1961,0.1967,0.2026,0.204,0.1888,0.1887,0.1887,0,0,0.1472,0.1499,0.1517,0.156,0.1589,0.1621,0.163,0.1675,0.171,0.1716,0.1784,0.1817,0.1839,0.1895,0.1924,0.1901,0.2007,0.1967,0.1973,0.1975,0.2032,0.2047,0.206,0.189,0.189,0.1889,0,0,0.1482,0.1518,0.1543,0.1575,0.1628,0.1648,0.1669,0.1715,0.1749,0.1805,0.1831,0.1888,0.1936,0.1966,0.1983,0.2051,0.2055,0.2071,0.211,0.2167,0.218,0.2192,0.221,0.2223,0.2069,0.2069,0.2069,0,0.1489,0.1523,0.1555,0.1589,0.1624,0.1665,0.1701,0.1733,0.1794,0.1834,0.184,0.1952,0.1967,0.2043,0.2069,0.2071,0.2095,0.2068,0.2178,0.219,0.2201,0.2217,0.223,0.2073,0.2072,0.2072,0.2072,0,0.1508,0.1552,0.1572,0.1629,0.1668,0.1709,0.1758,0.1812,0.186,0.1897,0.1998,0.2028,0.2096,0.2114,0.211,0.2203,0.2193,0.2187,0.2151,0.222,0.2232,0.2245,0.2078,0.2077,0.2075,0.2075,0,0,0.1483,0.1569,0.1582,0.1621,0.1698,0.1728,0.1801,0.1875,0.1937,0.2004,0.2086,0.2153,0.2189,0.2211,0.223,0.2272,0.2356,0.2266,0.2267,0.2279,0.2473,0.2329,0.2328,0.2383,0.2386,0.2389,0.2447,0,0.1495,0.1559,0.1604,0.1678,0.1716,0.1788,0.185,0.1927,0.1998,0.2085,0.2145,0.2232,0.222,0.2273,0.2314,0.236,0.2396,0.234,0.2408,0.2409,0.227,0.234,0.2398,0.2456,0.2459,0.2461,0.2463,0,0.1494,0.1543,0.1613,0.1714,0.174,0.1792,0.1916,0.1979,0.2103,0.2165,0.2263,0.2316,0.2409,0.2381,0.2486,0.246,0.2473,0.2487,0.249,0.2342,0.2288,0.2376,0.2485,0.2483,0.2482,0.248,0.2479,0,0.145,0.1549,0.1608,0.1643,0.1757,0.1817,0.1888,0.2012,0.2076,0.2233,0.2299,0.2416,0.2486,0.254,0.2574,0.2553,0.2667,0.2636,0.2512,0.25,0.2583,0.257,0.2702,0.2702,0.2702,0.2702,0.2702,0,0.1431,0.1482,0.1598,0.163,0.1709,0.1806,0.1906,0.2,0.2131,0.221,0.234,0.2412,0.2536,0.2608,0.2618,0.2603,0.2708,0.2528,0.2516,0.2606,0.2595,0.2591,0.2577,0.2704,0.2704,0.2703,0.2703,0,0.1366,0.1445,0.1512,0.1642,0.1688,0.1746,0.1892,0.1948,0.2105,0.2215,0.2273,0.2439,0.2545,0.2627,0.2721,0.2643,0.2655,0.2619,0.2707,0.2697,0.2432,0.2422,0.248,0.2476,0.2472,0.2469,0.2466,0,0.1332,0.1365,0.1498,0.1526,0.1587,0.169,0.1746,0.1915,0.1978,0.2205,0.2235,0.2408,0.2501,0.2511,0.2612,0.2636,0.2602,0.2577,0.2498,0.2433,0.2416,0.241,0.2405,0.246,0.2459,0.2458,0.2457,0,0.1256,0.1317,0.1363,0.1428,0.1488,0.156,0.1667,0.1704,0.19,0.2056,0.2161,0.2237,0.2347,0.2424,0.2469,0.2475,0.258,0.2537,0.2543,0.2469,0.2409,0.2395,0.2394,0.2444,0.2446,0.2448,0.2448,0,0.1182,0.1188,0.125,0.1296,0.1364,0.1403,0.1487,0.1576,0.1673,0.1932,0.1964,0.2155,0.2324,0.2341,0.238,0.2387,0.2342,0.2247,0.2268,0.2283,0.2193,0.2087,0.2022,0,0,0,0,0,0.1095,0.1082,0.111,0.115,0.1215,0.1273,0.141,0.1504,0.1706,0.1726,0.1847,0.1949,0.2045,0.2142,0.211,0.2279,0.2337,0.2229,0.2233,0.2373,0.2388,0.2302,0,0,0,0,0,0,0.1023,0.1036,0.1056,0.1021,0.1033,0.11,0.1191,0.1333,0.137,0.1586,0.1652,0.1818,0.1939,0.2042,0.2068,0.2096,0.2054,0.2352,0.2346,0.2365,0.2378,0.239,0.2307,0,0,0,0,0]},{"header":{"parameterUnit":"m.s-1","parameterCategory":2,"la1":30.2991,"la2":30.254,"lo1":-89.0895,"lo2":-89.0444,"dy":0.0017,"dx":0.0017,"nx":28,"ny":28,"refTime":"2025-02-07T09:00:00:Z","depth":"4","parameterNumber":3,"parameterNumberName":"V-component_of_CURRENTS"},"data":[0,0,0,0,0,0,0,0,0,0,0,0,0,0,0,0,0,0,0,0,0,0,0,0,0,0,0,0,0,0,0,0,0,0,0,0,0,0,0,0,0,0,0,0,0,0,0,0,0,0,0,0,0,0,0,0,0,0,0.0001,0.0,0,-0.0037,-0.0037,-0.0038,-0.0077,-0.0077,-0.0078,-0.0078,-0.0153,-0.0154,-0.0156,0,0,0,0,0,0,0,0,0,0,0,0,0,-0.0,0.0,0.0001,0.0,-0.0,-0.0037,-0.0037,-0.0038,-0.0077,-0.0077,-0.0078,-0.0078,-0.0152,-0.0154,-0.0156,0,0,0,0,0,0,0,0,0,0,0,0,0,-0.0016,0.0,0.0001,-0.0023,-0.0026,-0.0037,-0.0037,-0.0038,-0.0077,-0.0077,-0.0078,-0.0079,-0.0152,-0.0154,-0.0156,-0.0157,0,0,-0.0164,-0.0165,0,0,0,0,0,0,0,0,-0.0015,-0.0016,-0.0019,-0.0022,-0.0024,-0.0052,-0.0065,-0.008,-0.0076,-0.0058,-0.0078,-0.0079,-0.0122,-0.0126,-0.0133,-0.0161,-0.0164,-0.0164,-0.0165,-0.0166,-0.0167,0,0,0,0,0,0,0,-0.0014,-0.0015,-0.0015,-0.002,-0.0023,-0.0045,-0.0048,-0.0068,-0.0087,-0.006,-0.0063,-0.0065,-0.0123,-0.013,-0.0135,-0.0165,-0.0164,-0.0166,-0.0167,-0.0168,-0.0217,-0.0217,0,0,0,0,0,0,-0.0004,-0.0013,-0.0014,-0.0016,-0.002,-0.0044,-0.0048,-0.0043,-0.0086,-0.0093,-0.0064,-0.0067,-0.0126,-0.0132,-0.0138,-0.0146,-0.0166,-0.0168,-0.017,-0.0217,-0.0217,-0.0217,0,0,0,0,0,0,-0.0004,-0.0004,-0.0013,-0.0015,-0.0018,-0.0043,-0.0038,-0.0044,-0.0052,-0.0089,-0.0097,-0.0067,-0.0127,-0.0134,-0.0152,-0.0149,-0.017,-0.0172,-0.0218,-0.0217,-0.0217,-0.0159,0,0,0,0,0,0,-0.0004,-0.0003,0.0002,-0.0014,-0.0017,-0.0013,-0.0038,-0.0044,-0.0052,-0.0055,-0.0094,-0.0101,-0.0128,-0.0148,-0.0154,-0.0153,-0.0174,-0.0218,-0.0218,-0.0217,-0.0161,-0.0157,-0.0153,0,0,0,0,0,-0.0003,0.0013,0.0003,0.0003,-0.0009,-0.0012,-0.0016,-0.0038,-0.0051,-0.0049,-0.0076,-0.01,-0.0152,-0.015,-0.0157,-0.0156,-0.0218,-0.0218,-0.0217,-0.0163,-0.0158,-0.0154,0,0,0,0,0,0,0.0017,0.001,-0.0001,0.0012,0.0001,-0.0018,-0.0017,-0.0032,-0.0051,-0.0055,-0.0094,-0.0103,-0.0121,-0.0144,-0.0141,-0.0171,-0.0191,-0.0192,-0.0147,-0.0143,-0.0139,-0.013,-0.0175,0,0,0,0,0,0.0025,0.0033,0.0019,0.0029,0.0026,0.0004,-0.0001,-0.0013,-0.0031,-0.004,-0.0068,-0.0099,-0.0125,-0.0137,-0.0164,-0.0173,-0.0211,-0.018,-0.0176,-0.0172,-0.0171,-0.0222,-0.0223,-0.0216,-0.0216,-0.0216,0,0,0.0035,0.0032,0.0036,0.0033,0.0023,0.0029,-0.0,0.0,0.0002,-0.0045,-0.0053,-0.0085,-0.0125,-0.0139,-0.0149,-0.0158,-0.0194,-0.0172,-0.0169,-0.0169,-0.0222,-0.0223,-0.0223,-0.0216,-0.0216,-0.0216,0,0,0.0062,0.0058,0.0072,0.0069,0.006,0.0049,0.0052,0.0035,0.0023,0.0015,-0.0023,-0.0051,-0.0084,-0.0114,-0.0134,-0.0124,-0.0173,-0.0134,-0.0105,-0.0154,-0.0155,-0.0157,-0.0203,-0.0209,-0.013,-0.013,-0.013,0,0.0073,0.009,0.0076,0.0088,0.009,0.0063,0.0078,0.0066,0.0044,0.0034,0.0021,-0.0041,-0.0072,-0.0101,-0.0098,-0.0115,-0.0151,-0.0117,-0.0149,-0.0151,-0.0154,-0.0201,-0.0209,-0.0127,-0.0128,-0.0128,-0.0128,0,0.0108,0.0121,0.0131,0.0137,0.0137,0.0148,0.0132,0.0126,0.0109,0.0089,0.0058,0.0012,-0.0026,-0.0042,-0.0066,-0.0098,-0.0121,-0.0139,-0.0158,-0.0151,-0.0201,-0.021,-0.0123,-0.0124,-0.0125,-0.0126,0,0,0.0131,0.0152,0.0154,0.0168,0.0165,0.0172,0.0175,0.0167,0.0164,0.0132,0.0119,0.007,0.0036,0.0011,-0.003,-0.0071,-0.0117,-0.0105,-0.0109,-0.0147,-0.0228,-0.0208,-0.0216,-0.0141,-0.0143,-0.0144,-0.0256,0,0.016,0.0198,0.0198,0.0232,0.0249,0.0232,0.0237,0.0224,0.0202,0.0182,0.0125,0.0097,0.0059,0.004,-0.0007,-0.0089,-0.0138,-0.0085,-0.0235,-0.0239,-0.0218,-0.0225,-0.0147,-0.0263,-0.0265,-0.0267,-0.0268,0,0.0189,0.0212,0.0252,0.0279,0.0285,0.03,0.03,0.0302,0.0264,0.0246,0.0203,0.0154,0.0092,0.0058,-0.0078,-0.0043,-0.013,-0.0196,-0.0203,-0.021,-0.0235,-0.0275,-0.0284,-0.0283,-0.0281,-0.028,-0.0279,0,0.0209,0.0249,0.0284,0.0293,0.0317,0.033,0.0339,0.0318,0.0324,0.0283,0.0277,0.019,0.0151,0.0035,-0.0095,-0.0092,-0.0251,-0.0267,-0.0335,-0.0336,-0.0346,-0.0343,-0.0372,-0.0372,-0.0372,-0.0371,-0.0371,0,0.0235,0.0264,0.0299,0.0319,0.0361,0.0363,0.0393,0.0385,0.0374,0.0387,0.0312,0.0298,0.0143,0.0038,-0.0088,-0.0232,-0.025,-0.0333,-0.0363,-0.0318,-0.0312,-0.0352,-0.0348,-0.0376,-0.0375,-0.0374,-0.0373,0,0.0246,0.027,0.0314,0.0354,0.0372,0.0399,0.0443,0.0463,0.0447,0.046,0.0452,0.0368,0.0244,0.0079,-0.0114,-0.0211,-0.036,-0.0412,-0.0351,-0.0375,-0.0416,-0.0408,-0.0496,-0.0497,-0.0497,-0.0497,-0.0497,0,0.0253,0.0277,0.034,0.0376,0.0399,0.0445,0.0484,0.0497,0.0527,0.0509,0.0523,0.0412,0.0339,0.009,-0.0092,-0.0338,-0.0372,-0.0458,-0.0438,-0.0408,-0.0429,-0.042,-0.0412,-0.0497,-0.0498,-0.0498,-0.0498,0,0.0263,0.0285,0.0329,0.0408,0.0463,0.0526,0.0584,0.0613,0.0632,0.0613,0.0591,0.0462,0.0321,0.012,-0.0077,-0.0253,-0.0404,-0.046,-0.0461,-0.0443,-0.0411,-0.0429,-0.0421,-0.0498,-0.0498,-0.0498,-0.0498,0,0.0272,0.0302,0.0369,0.0442,0.0519,0.06,0.0621,0.0669,0.0695,0.0679,0.0668,0.0512,0.0413,0.0163,-0.0016,-0.0188,-0.0231,-0.0288,-0.0299,-0.03,-0.0207,-0.0136,-0.0164,0,0,0,0,0,0.0281,0.0332,0.04,0.0493,0.0574,0.0624,0.0695,0.0711,0.0729,0.0731,0.0704,0.0579,0.033,0.0218,0.0053,-0.0035,-0.0275,-0.0237,-0.0349,-0.0502,-0.0501,-0.0423,0,0,0,0,0,0,0.0289,0.0358,0.0406,0.0533,0.0603,0.0699,0.075,0.0758,0.076,0.0744,0.062,0.054,0.0298,0.0432,0.0053,-0.0002,-0.0096,-0.0361,-0.0364,-0.0502,-0.0502,-0.0501,-0.042,0,0,0,0,0]}]]